Home > Weather > Sarnia > Past weeks

Flag for Canada Past Weather in Sarnia, Ontario, Canada — Yesterday and Last 2 Weeks

Now
82 °F

Sunny.


Feels Like: 85 °F
Forecast: 67 / 86 °F
Wind: 9 mph from Northeast

Location: Sarnia Airport

Current Time: Jul 23, 2016 at 3:32:57 PM

Latest Report: Jul 23, 2016 at 3:00 PM


Visibility: 9 mi

Pressure: 29.98 "Hg

Humidity: 58%

Dew Point: 66 °F

Location of SarniaLocation

Past Weather in Sarnia — Graph

°F

Sarnia Temperature Yesterday

Maximum temperature yesterday: 91 °F (at 3:00 PM)
Minimum temperature yesterday: 73 °F (at 6:00 AM)
Average temperature yesterday: 82 °F

High & Low Weather Summary for the Past Weeks

 TemperatureHumidityPressure
High91 °F (Jul 22, 3:00 PM)100% (Jul 8, 10:00 PM)30.28 "Hg (Jul 8, 10:00 PM)
Low54 °F (Jul 20, 7:00 AM)38% (Jul 14, 6:00 PM)29.69 "Hg (Jul 8, 6:00 PM)
Average73 °F71%29.98 "Hg
* Reported Jul 8 2:00 PM — Jul 23 2:00 PM, Sarnia, Weather by CustomWeather, © 2016

Note: Actual official high and low records may vary slightly from our data, if they occured in-between our weather recording intervals... More about our weather records

Advertising

Sarnia Weather History for the Previous 24 Hours

Scroll right to see more
 ConditionsComfort  
Time TempWeatherWind HumidityBarometerVisibility
2:00 PM
Sat, Jul 23
82 °FSunny.9 mph55%29.99 "Hg9 mi
1:00 PM82 °FSunny.14 mph58%29.98 "Hg9 mi
12:00 PM82 °FPartly sunny.10 mph62%29.97 "Hg9 mi
11:00 AM84 °FSunny.7 mph55%29.96 "Hg9 mi
10:00 AM84 °FSunny.3 mph45%29.96 "Hg9 mi
9:00 AM79 °FSunny.5 mph58%29.96 "Hg9 mi
8:00 AM73 °FSunny.No wind83%29.95 "Hg9 mi
7:00 AM66 °FClear.No wind94%29.96 "Hg9 mi
6:00 AM66 °FClear.2 mph94%29.94 "Hg9 mi
5:00 AM68 °FClear.5 mph94%29.94 "Hg9 mi
4:00 AM70 °FClear.No wind88%29.93 "Hg9 mi
3:00 AM70 °FClear.No wind94%29.94 "Hg9 mi
2:00 AM72 °FClear.2 mph94%29.93 "Hg9 mi
1:00 AM77 °FClear.6 mph74%29.92 "Hg9 mi
12:00 AM81 °FClear.9 mph66%29.91 "Hg9 mi
11:00 PM
Fri, Jul 22
82 °FClear.7 mph62%29.91 "Hg9 mi
10:00 PM84 °FClear.6 mph62%29.90 "Hg9 mi
9:00 PM86 °FSunny.6 mph59%29.88 "Hg9 mi
8:00 PM90 °FSunny.10 mph49%29.88 "Hg9 mi
7:00 PM90 °FSunny.12 mph49%29.87 "Hg9 mi
6:00 PM91 °FSunny.14 mph46%29.88 "Hg9 mi
5:00 PM91 °FScattered clouds.14 mph46%29.90 "Hg9 mi
4:00 PM91 °FScattered clouds.13 mph44%29.91 "Hg9 mi
3:00 PM91 °FPassing clouds.9 mph44%29.93 "Hg9 mi
Weather by CustomWeather, © 2016

See weather overviewHow to use our weather pages